AAY1060 KPIE-KEYW

Flight info

Callsign AAY1060
Flight time 0h 43m
Altitude 21000
Route SABEE KRAKN1
Aircraft A20N/M-SDE2E3FGHIRWXY/LB1

Departure

Time 2026-04-15 14:19
Airport St. Petersburg Clearwater International Airport (KPIE)

Arrival

Time 2026-04-15 15:02
Airport Key West International Airport (KEYW)
Time Latitude Longitude Altitude Speed Heading
2026-04-15 13:55 27.90659 -82.69021 19 ft 0 kts 265°
2026-04-15 14:08 27.90660 -82.69011 19 ft 2 kts 227°
2026-04-15 14:08 27.90671 -82.69004 23 ft 0 kts 162°
2026-04-15 14:08 27.90666 -82.69006 19 ft 2 kts 195°
2026-04-15 14:09 27.90662 -82.69013 19 ft 2 kts 245°
2026-04-15 14:09 27.90662 -82.69017 19 ft 0 kts 268°
2026-04-15 14:10 27.90662 -82.69009 19 ft 1 kts 268°
2026-04-15 14:10 27.90663 -82.69001 19 ft 1 kts 268°
2026-04-15 14:10 27.90663 -82.68992 19 ft 1 kts 268°
2026-04-15 14:11 27.90663 -82.68983 19 ft 1 kts 276°
2026-04-15 14:11 27.90661 -82.68971 20 ft 2 kts 290°
2026-04-15 14:11 27.90657 -82.68959 21 ft 2 kts 305°
2026-04-15 14:11 27.90650 -82.68949 23 ft 2 kts 319°
2026-04-15 14:12 27.90641 -82.68941 23 ft 2 kts 334°
2026-04-15 14:12 27.90630 -82.68937 23 ft 2 kts 349°
2026-04-15 14:12 27.90629 -82.68936 23 ft 0 kts 351°
2026-04-15 14:14 27.90670 -82.68943 20 ft 11 kts 352°
2026-04-15 14:14 27.90767 -82.68958 20 ft 16 kts 353°
2026-04-15 14:14 27.90892 -82.68976 19 ft 20 kts 352°
2026-04-15 14:15 27.91043 -82.69004 16 ft 24 kts 351°
2026-04-15 14:15 27.91220 -82.69036 17 ft 26 kts 352°
2026-04-15 14:15 27.91409 -82.69066 16 ft 29 kts 352°
2026-04-15 14:15 27.91616 -82.69100 17 ft 31 kts 352°
2026-04-15 14:16 27.91831 -82.69141 16 ft 32 kts 352°
2026-04-15 14:16 27.92061 -82.69173 15 ft 34 kts 353°
2026-04-15 14:16 27.92239 -82.69211 14 ft 22 kts 356°
2026-04-15 14:16 27.92322 -82.69157 15 ft 13 kts 64°
2026-04-15 14:17 27.92309 -82.69065 16 ft 12 kts 156°
2026-04-15 14:17 27.92284 -82.69060 16 ft 0 kts 173°
2026-04-15 14:18 27.92265 -82.69057 17 ft 22 kts 173°
2026-04-15 14:18 27.91792 -82.68976 17 ft 112 kts 172°
2026-04-15 14:18 27.90791 -82.68829 117 ft 171 kts 170°
2026-04-15 14:19 27.89514 -82.68573 638 ft 202 kts 166°
2026-04-15 14:19 27.88013 -82.68251 1201 ft 235 kts 167°
2026-04-15 14:19 27.86475 -82.67920 1747 ft 210 kts 167°
2026-04-15 14:19 27.84961 -82.67600 1801 ft 247 kts 168°
2026-04-15 14:20 27.83082 -82.67498 1621 ft 290 kts 186°
2026-04-15 14:20 27.81154 -82.68008 1592 ft 276 kts 195°
2026-04-15 14:20 27.79407 -82.68640 1595 ft 252 kts 197°
2026-04-15 14:20 27.77728 -82.69286 1632 ft 260 kts 197°
2026-04-15 14:21 27.76008 -82.69956 2092 ft 261 kts 197°
2026-04-15 14:21 27.74298 -82.70625 3294 ft 260 kts 196°
2026-04-15 14:21 27.72495 -82.70915 4312 ft 266 kts 172°
2026-04-15 14:21 27.70754 -82.70260 5317 ft 266 kts 146°
2026-04-15 14:22 27.69226 -82.69081 6393 ft 267 kts 142°
2026-04-15 14:22 27.67734 -82.67802 7304 ft 272 kts 141°
2026-04-15 14:22 27.66217 -82.66485 8175 ft 278 kts 142°
2026-04-15 14:22 27.64673 -82.65165 8994 ft 285 kts 142°
2026-04-15 14:23 27.63063 -82.63810 9818 ft 291 kts 143°
2026-04-15 14:23 27.61404 -82.62429 10441 ft 306 kts 143°
2026-04-15 14:23 27.59614 -82.60946 10711 ft 330 kts 143°
2026-04-15 14:23 27.57701 -82.59365 11078 ft 348 kts 143°
2026-04-15 14:24 27.55722 -82.57730 11798 ft 354 kts 143°
2026-04-15 14:24 27.53719 -82.56076 12513 ft 361 kts 143°
2026-04-15 14:24 27.51680 -82.54393 13228 ft 367 kts 143°
2026-04-15 14:24 27.49631 -82.52702 14002 ft 371 kts 143°
2026-04-15 14:25 27.47537 -82.50975 14685 ft 375 kts 143°
2026-04-15 14:25 27.45428 -82.49236 15382 ft 378 kts 143°
2026-04-15 14:25 27.43293 -82.47478 16071 ft 381 kts 143°
2026-04-15 14:25 27.41141 -82.45707 16744 ft 385 kts 143°
2026-04-15 14:26 27.38967 -82.43919 17423 ft 388 kts 143°
2026-04-15 14:26 27.36776 -82.42116 18077 ft 392 kts 143°
2026-04-15 14:26 27.34566 -82.40298 18702 ft 396 kts 143°
2026-04-15 14:26 27.32337 -82.38465 19283 ft 398 kts 143°
2026-04-15 14:27 27.30089 -82.36618 19862 ft 401 kts 143°
2026-04-15 14:27 27.27825 -82.34758 20427 ft 404 kts 142°
2026-04-15 14:27 27.25538 -82.32881 20605 ft 407 kts 142°
2026-04-15 14:27 27.23261 -82.31012 20704 ft 406 kts 142°
2026-04-15 14:28 27.20994 -82.29154 20805 ft 407 kts 142°
2026-04-15 14:28 27.18700 -82.27273 20907 ft 408 kts 142°
2026-04-15 14:28 27.16405 -82.25392 21005 ft 408 kts 142°
2026-04-15 14:28 27.14103 -82.23506 21107 ft 409 kts 142°
2026-04-15 14:29 27.11802 -82.21625 21209 ft 409 kts 143°
2026-04-15 14:29 27.09354 -82.19980 21218 ft 411 kts 153°
2026-04-15 14:29 27.06679 -82.18829 21219 ft 412 kts 163°
2026-04-15 14:29 27.03870 -82.18183 21227 ft 413 kts 170°
2026-04-15 14:30 27.01072 -82.17660 21226 ft 413 kts 169°
2026-04-15 14:30 26.98240 -82.17115 21227 ft 413 kts 169°
2026-04-15 14:30 26.95408 -82.16565 21230 ft 413 kts 169°
2026-04-15 14:30 26.92573 -82.16013 21232 ft 413 kts 169°
2026-04-15 14:31 26.89746 -82.15464 21233 ft 413 kts 169°
2026-04-15 14:31 26.86914 -82.14916 21233 ft 413 kts 169°
2026-04-15 14:31 26.84080 -82.14367 21229 ft 413 kts 169°
2026-04-15 14:31 26.81250 -82.13820 21229 ft 412 kts 169°
2026-04-15 14:32 26.78425 -82.13274 21226 ft 413 kts 169°
2026-04-15 14:32 26.75587 -82.12726 21222 ft 413 kts 169°
2026-04-15 14:32 26.72761 -82.12123 21219 ft 413 kts 167°
2026-04-15 14:32 26.69956 -82.11455 21216 ft 412 kts 167°
2026-04-15 14:33 26.67291 -82.10808 21208 ft 412 kts 167°
2026-04-15 14:33 26.64448 -82.10123 21210 ft 412 kts 167°
2026-04-15 14:33 26.61639 -82.09456 21211 ft 413 kts 167°
2026-04-15 14:33 26.58816 -82.08792 21208 ft 413 kts 167°
2026-04-15 14:34 26.56013 -82.08136 21212 ft 412 kts 167°
2026-04-15 14:34 26.53226 -82.07415 21210 ft 412 kts 162°
2026-04-15 14:34 26.50528 -82.06325 21213 ft 411 kts 156°
2026-04-15 14:34 26.47885 -82.05099 21212 ft 411 kts 156°
2026-04-15 14:35 26.45269 -82.03894 21214 ft 411 kts 156°
2026-04-15 14:35 26.42625 -82.02684 21207 ft 411 kts 156°
2026-04-15 14:35 26.39943 -82.01461 21208 ft 411 kts 156°
2026-04-15 14:35 26.37328 -82.00269 21206 ft 411 kts 156°
2026-04-15 14:36 26.34680 -81.99064 21205 ft 411 kts 156°
2026-04-15 14:36 26.32026 -81.97857 21202 ft 411 kts 156°
2026-04-15 14:36 26.29378 -81.96652 21202 ft 411 kts 156°
2026-04-15 14:36 26.26728 -81.95447 21206 ft 411 kts 156°
2026-04-15 14:37 26.24078 -81.94243 21207 ft 411 kts 156°
2026-04-15 14:37 26.21432 -81.93040 21206 ft 411 kts 156°
2026-04-15 14:37 26.18777 -81.91834 21208 ft 411 kts 156°
2026-04-15 14:37 26.16117 -81.90628 21209 ft 411 kts 156°
2026-04-15 14:38 26.13503 -81.89442 21210 ft 411 kts 156°
2026-04-15 14:38 26.10854 -81.88241 21209 ft 411 kts 156°
2026-04-15 14:38 26.08202 -81.87039 21212 ft 412 kts 156°
2026-04-15 14:38 26.05552 -81.85839 21208 ft 412 kts 156°
2026-04-15 14:39 26.02898 -81.84637 21206 ft 412 kts 156°
2026-04-15 14:39 26.00237 -81.83433 21214 ft 411 kts 156°
2026-04-15 14:39 25.97582 -81.82233 21216 ft 412 kts 156°
2026-04-15 14:39 25.94932 -81.81034 21217 ft 412 kts 156°
2026-04-15 14:40 25.92278 -81.79835 21216 ft 412 kts 156°
2026-04-15 14:40 25.89637 -81.78605 21214 ft 411 kts 153°
2026-04-15 14:40 25.87142 -81.77074 21215 ft 410 kts 146°
2026-04-15 14:40 25.84717 -81.75388 21213 ft 410 kts 146°
2026-04-15 14:41 25.82291 -81.73711 21212 ft 410 kts 146°
2026-04-15 14:41 25.79870 -81.72043 21211 ft 410 kts 147°
2026-04-15 14:41 25.77445 -81.70376 21208 ft 410 kts 147°
2026-04-15 14:41 25.75017 -81.68709 21207 ft 410 kts 147°
2026-04-15 14:42 25.72586 -81.67039 21205 ft 410 kts 146°
2026-04-15 14:42 25.70196 -81.65397 21203 ft 410 kts 147°
2026-04-15 14:42 25.67765 -81.63728 21203 ft 410 kts 146°
2026-04-15 14:42 25.65341 -81.62067 21197 ft 410 kts 147°
2026-04-15 14:43 25.62914 -81.60403 21197 ft 410 kts 146°
2026-04-15 14:43 25.60479 -81.58735 21195 ft 410 kts 146°
2026-04-15 14:43 25.58052 -81.57074 21194 ft 410 kts 146°
2026-04-15 14:43 25.55617 -81.55406 21004 ft 412 kts 146°
2026-04-15 14:44 25.53169 -81.53753 20486 ft 414 kts 150°
2026-04-15 14:44 25.50473 -81.52581 19728 ft 420 kts 165°
2026-04-15 14:44 25.47613 -81.52255 19207 ft 409 kts 181°
2026-04-15 14:44 25.44823 -81.52794 18634 ft 407 kts 198°
2026-04-15 14:45 25.42238 -81.54029 18087 ft 403 kts 206°
2026-04-15 14:45 25.39747 -81.55445 17296 ft 405 kts 207°
2026-04-15 14:45 25.37239 -81.56825 16773 ft 400 kts 205°
2026-04-15 14:45 25.34730 -81.58114 16230 ft 392 kts 204°
2026-04-15 14:46 25.32305 -81.59292 15707 ft 380 kts 202°
2026-04-15 14:46 25.29901 -81.60422 15188 ft 370 kts 202°
2026-04-15 14:46 25.27561 -81.61505 14822 ft 356 kts 201°
2026-04-15 14:46 25.25337 -81.62530 14640 ft 337 kts 201°
2026-04-15 14:47 25.23202 -81.63514 14203 ft 329 kts 201°
2026-04-15 14:47 25.21095 -81.64484 13618 ft 327 kts 201°
2026-04-15 14:47 25.19008 -81.65445 13045 ft 323 kts 201°
2026-04-15 14:47 25.16946 -81.66396 12472 ft 319 kts 200°
2026-04-15 14:48 25.14908 -81.67335 11926 ft 316 kts 200°
2026-04-15 14:48 25.12899 -81.68261 11462 ft 309 kts 200°
2026-04-15 14:48 25.10930 -81.69169 11034 ft 306 kts 200°
2026-04-15 14:48 25.08954 -81.70078 10606 ft 309 kts 200°
2026-04-15 14:49 25.07009 -81.70974 10306 ft 303 kts 200°
2026-04-15 14:49 25.05037 -81.71881 10091 ft 305 kts 199°
2026-04-15 14:49 25.03105 -81.72769 10011 ft 303 kts 200°
2026-04-15 14:49 25.01168 -81.73660 9996 ft 300 kts 200°
2026-04-15 14:50 24.99274 -81.74533 9901 ft 291 kts 199°
2026-04-15 14:50 24.97416 -81.75387 9566 ft 289 kts 199°
2026-04-15 14:50 24.95570 -81.76235 9209 ft 287 kts 199°
2026-04-15 14:50 24.94328 -81.76805 8949 ft 286 kts 199°
2026-04-15 14:51 24.92519 -81.77634 8604 ft 283 kts 199°
2026-04-15 14:51 24.90710 -81.78464 8302 ft 281 kts 199°
2026-04-15 14:51 24.88897 -81.79296 8003 ft 282 kts 200°
2026-04-15 14:51 24.87169 -81.80313 7699 ft 282 kts 210°
2026-04-15 14:52 24.86393 -81.80872 7572 ft 280 kts 210°
2026-04-15 14:52 24.84756 -81.82044 7265 ft 278 kts 210°
2026-04-15 14:52 24.83133 -81.83197 6997 ft 273 kts 209°
2026-04-15 14:53 24.81569 -81.84309 6712 ft 264 kts 209°
2026-04-15 14:53 24.80037 -81.85394 6392 ft 257 kts 209°
2026-04-15 14:53 24.78573 -81.86428 6088 ft 250 kts 209°
2026-04-15 14:53 24.77126 -81.87450 5867 ft 251 kts 209°
2026-04-15 14:54 24.75649 -81.88490 5598 ft 252 kts 209°
2026-04-15 14:54 24.74182 -81.89525 5333 ft 248 kts 209°
2026-04-15 14:54 24.72744 -81.90541 5070 ft 244 kts 210°
2026-04-15 14:54 24.71314 -81.91549 4816 ft 243 kts 210°
2026-04-15 14:55 24.69922 -81.92534 4574 ft 233 kts 210°
2026-04-15 14:55 24.68581 -81.93483 4307 ft 227 kts 209°
2026-04-15 14:55 24.67216 -81.94446 4065 ft 237 kts 209°
2026-04-15 14:55 24.65829 -81.95424 3896 ft 234 kts 210°
2026-04-15 14:56 24.64462 -81.96374 3622 ft 230 kts 204°
2026-04-15 14:56 24.62962 -81.96881 3317 ft 222 kts 180°
2026-04-15 14:56 24.61441 -81.96867 3097 ft 216 kts 174°
2026-04-15 14:56 24.59952 -81.96837 2910 ft 209 kts 174°
2026-04-15 14:57 24.58545 -81.96822 2838 ft 197 kts 174°
2026-04-15 14:57 24.57195 -81.96778 2485 ft 192 kts 165°
2026-04-15 14:57 24.56068 -81.96146 2259 ft 180 kts 131°
2026-04-15 14:57 24.55478 -81.94999 2165 ft 168 kts 101°
2026-04-15 14:58 24.55436 -81.93765 1997 ft 159 kts 88°
2026-04-15 14:58 24.55457 -81.92575 1799 ft 153 kts 89°
2026-04-15 14:58 24.55468 -81.91420 1600 ft 147 kts 89°
2026-04-15 14:58 24.55478 -81.90258 1527 ft 162 kts 90°
2026-04-15 14:59 24.55489 -81.89031 1508 ft 158 kts 89°
2026-04-15 14:59 24.55499 -81.87843 1498 ft 152 kts 89°
2026-04-15 14:59 24.55510 -81.86677 1506 ft 155 kts 89°
2026-04-15 14:59 24.55523 -81.85488 1490 ft 159 kts 90°
2026-04-15 15:00 24.55536 -81.84250 1317 ft 162 kts 90°
2026-04-15 15:00 24.55547 -81.83035 1079 ft 154 kts 89°
2026-04-15 15:00 24.55557 -81.81911 824 ft 141 kts 89°
2026-04-15 15:00 24.55565 -81.80909 632 ft 125 kts 89°
2026-04-15 15:01 24.55583 -81.80004 502 ft 112 kts 90°
2026-04-15 15:01 24.55592 -81.79147 403 ft 119 kts 90°
2026-04-15 15:01 24.55607 -81.78190 251 ft 126 kts 91°
2026-04-15 15:01 24.55606 -81.77272 84 ft 114 kts 91°
2026-04-15 15:02 24.55606 -81.76446 13 ft 104 kts 90°
2026-04-15 15:02 24.55611 -81.75940 12 ft 48 kts 90°
2026-04-15 15:02 24.55613 -81.75659 13 ft 21 kts 88°
2026-04-15 15:02 24.55553 -81.75587 11 ft 13 kts 166°
2026-04-15 15:03 24.55516 -81.75520 10 ft 7 kts 137°
2026-04-15 15:03 24.55504 -81.75520 10 ft 0 kts 193°
2026-04-15 15:03 24.55484 -81.75531 10 ft 11 kts 209°
2026-04-15 15:03 24.55438 -81.75542 10 ft 3 kts 181°
2026-04-15 15:04 24.55437 -81.75542 10 ft 0 kts 181°